Eielson Air Force Base Fairbanks US
ICAO: PAEI
IATA:
Category: Medium
Scheduled Services:

Elevation: 547 ft
TransAlt. 18000 ft.

Airport Communications:
FAIRBANKS APP:125.35
ASOS:118.525
ATIS:27.35
CLNC DEL:34.37
FAIRBANKS DEP:126.5
GND:121.8
RANGE CON:125.3
SOURDOUGH:139.6
IGLOO:25.95
PMSV METRO:34.66
CHENA CON:23.81
PTD:37.22
TWR:127.2

PAEI Zoom In..

If you have problems with the map follow the link
https://www.worldairports.se/pages/airport.php?
ICAO=PAEI

Runways:

(A) RW 14 length 14530 ft width 150 ft
ILS 110.50 / hdg 136

(B) RW 32 length 14530 ft width 150 ft
ILS 109.90 / hdg 316

Location; PAEI
Day. 14 / Time. 21.56 Zulu
* Altimeter: 29.37
* Temperature: -26° c. 14.8°f.
* Wind from: 000° Speed 00 kn.
Dewpoint: -29° c.
Visibility: 10 Statute Miles.
Clouds: Broken 7000 ft.
Clouds: Broken 11000 ft.
Clouds: Broken 2000 ft.

PAEI 142156Z 00000KT 10SM BKN070 BKN110 BKN200 M26/M29 A2937 RMK AO2A SLP968 T12571295 RVRNO $


Wind - Calm.

 
 
jpsmedia.com for Web Design worldairports.se 2018   terms of use